| time (UTC) | temp C | wind direction | speed KPH | gust KPH | rain 1hr cm | rain 24hr cm | rain mn cm | humidity % | barometer mb |
| 20260507123821 | 21 | 175 | 9.7 | 22.5 | 0.00 | 0.00 | 0.00 | 42 | 1010.5 |
| 20260507123321 | 21 | 219 | 22.5 | 22.5 | 0.00 | 0.00 | 0.00 | 43 | 1010.6 |
| 20260507122821 | 21 | 261 | 11.3 | 16.1 | 0.00 | 0.00 | 0.00 | 43 | 1010.6 |
| 20260507122320 | 21 | 246 | 8.0 | 14.5 | 0.00 | 0.00 | 0.00 | 44 | 1010.6 |
| 20260507121820 | 21 | 233 | 8.0 | 16.1 | 0.00 | 0.00 | 0.00 | 45 | 1010.6 |
| 20260507121320 | 20 | 250 | 4.8 | 17.7 | 0.00 | 0.00 | 0.00 | 44 | 1010.8 |
| 20260507120820 | 21 | 251 | 6.4 | 27.4 | 0.00 | 0.00 | 0.00 | 44 | 1010.8 |
| 20260507120319 | 21 | 192 | 24.1 | 24.1 | 0.00 | 0.00 | 0.00 | 43 | 1010.8 |
| 20260507115819 | 21 | 111 | 6.4 | 20.9 | 0.00 | 0.00 | 0.00 | 44 | 1010.8 |
| 20260507115319 | 21 | 203 | 14.5 | 19.3 | 0.00 | 0.00 | 0.00 | 44 | 1010.9 |
| 20260507114818 | 21 | 216 | 17.7 | 24.1 | 0.00 | 0.00 | 0.00 | 44 | 1010.9 |
| 20260507114318 | 21 | 156 | 16.1 | 19.3 | 0.00 | 0.00 | 0.00 | 45 | 1011.0 |
| 20260507113818 | 21 | 213 | 4.8 | 27.4 | 0.00 | 0.00 | 0.00 | 43 | 1011.1 |
| 20260507113318 | 21 | 229 | 11.3 | 25.7 | 0.00 | 0.00 | 0.00 | 42 | 1011.1 |
| 20260507112817 | 21 | 262 | 3.2 | 24.1 | 0.00 | 0.00 | 0.00 | 43 | 1011.0 |
| 20260507112317 | 21 | 171 | 6.4 | 19.3 | 0.00 | 0.00 | 0.00 | 43 | 1011.0 |
| 20260507111817 | 21 | 172 | 6.4 | 24.1 | 0.00 | 0.00 | 0.00 | 42 | 1011.1 |
| 20260507111317 | 21 | 199 | 14.5 | 22.5 | 0.00 | 0.00 | 0.00 | 42 | 1011.0 |
| 20260507110816 | 21 | 223 | 9.7 | 17.7 | 0.00 | 0.00 | 0.00 | 43 | 1011.0 |
| 20260507110316 | 21 | 225 | 4.8 | 22.5 | 0.00 | 0.00 | 0.00 | 42 | 1011.0 |
| 20260507105816 | 21 | 272 | 8.0 | 22.5 | 0.00 | 0.00 | 0.00 | 42 | 1011.0 |
| 20260507105315 | 21 | 239 | 9.7 | 20.9 | 0.00 | 0.00 | 0.00 | 41 | 1011.0 |
| 20260507104815 | 21 | 178 | 4.8 | 16.1 | 0.00 | 0.00 | 0.00 | 44 | 1011.0 |
| 20260507104315 | 21 | 202 | 3.2 | 24.1 | 0.00 | 0.00 | 0.00 | 44 | 1011.0 |
| 20260507103815 | 21 | 253 | 9.7 | 25.7 | 0.00 | 0.00 | 0.00 | 42 | 1011.0 |
| 20260507103314 | 21 | 196 | 8.0 | 20.9 | 0.00 | 0.00 | 0.00 | 42 | 1011.0 |
| 20260507102814 | 21 | 209 | 8.0 | 16.1 | 0.00 | 0.00 | 0.00 | 44 | 1011.1 |
| 20260507102314 | 21 | 237 | 12.9 | 14.5 | 0.00 | 0.00 | 0.00 | 43 | 1011.1 |
| 20260507101813 | 21 | 232 | 9.7 | 24.1 | 0.00 | 0.00 | 0.00 | 43 | 1011.0 |
| 20260507101313 | 21 | 226 | 14.5 | 20.9 | 0.00 | 0.00 | 0.00 | 42 | 1011.1 |
| 20260507100813 | 21 | 201 | 3.2 | 20.9 | 0.00 | 0.00 | 0.00 | 43 | 1011.0 |
| 20260507100313 | 21 | 206 | 4.8 | 19.3 | 0.00 | 0.00 | 0.00 | 43 | 1010.9 |
| 20260507095812 | 21 | 209 | 8.0 | 19.3 | 0.00 | 0.00 | 0.00 | 42 | 1011.0 |
| 20260507095312 | 21 | 241 | 12.9 | 20.9 | 0.00 | 0.00 | 0.00 | 44 | 1010.9 |
| 20260507094812 | 21 | 203 | 11.3 | 25.7 | 0.00 | 0.00 | 0.00 | 42 | 1010.9 |
| 20260507094311 | 21 | 230 | 6.4 | 20.9 | 0.00 | 0.00 | 0.00 | 43 | 1011.0 |
| 20260507093811 | 21 | 241 | 12.9 | 25.7 | 0.00 | 0.00 | 0.00 | 43 | 1011.0 |
| 20260507093311 | 21 | 232 | 3.2 | 25.7 | 0.00 | 0.00 | 0.00 | 44 | 1010.9 |
| 20260507092811 | 20 | 175 | 9.7 | 20.9 | 0.00 | 0.00 | 0.00 | 43 | 1011.0 |
| 20260507092310 | 20 | 240 | 14.5 | 22.5 | 0.00 | 0.00 | 0.00 | 45 | 1011.0 |
| 20260507091810 | 20 | 210 | 12.9 | 24.1 | 0.00 | 0.00 | 0.00 | 46 | 1011.0 |
| 20260507091310 | 20 | 232 | 11.3 | 17.7 | 0.00 | 0.00 | 0.00 | 49 | 1011.0 |
| 20260507090809 | 20 | 246 | 8.0 | 17.7 | 0.00 | 0.00 | 0.00 | 49 | 1011.0 |
| 20260507090309 | 20 | 254 | 3.2 | 20.9 | 0.00 | 0.00 | 0.00 | 49 | 1010.9 |
| 20260507085809 | 19 | 196 | 3.2 | 16.1 | 0.00 | 0.00 | 0.00 | 51 | 1010.9 |
| 20260507085309 | 19 | 236 | 3.2 | 14.5 | 0.00 | 0.00 | 0.00 | 50 | 1010.9 |
| 20260507084808 | 19 | 158 | 3.2 | 14.5 | 0.00 | 0.00 | 0.00 | 51 | 1011.0 |
| 20260507084308 | 19 | 264 | 8.0 | 14.5 | 0.00 | 0.00 | 0.00 | 50 | 1010.9 |
| 20260507083808 | 19 | 175 | 6.4 | 17.7 | 0.00 | 0.00 | 0.00 | 51 | 1010.9 |
| 20260507083307 | 19 | 122 | 0.0 | 17.7 | 0.00 | 0.00 | 0.00 | 52 | 1010.8 |
| 20260507082807 | 18 | 209 | 12.9 | 19.3 | 0.00 | 0.00 | 0.00 | 53 | 1010.8 |
| 20260507082307 | 18 | 130 | 4.8 | 19.3 | 0.00 | 0.00 | 0.00 | 54 | 1010.7 |
| 20260507081807 | 18 | 201 | 0.0 | 17.7 | 0.00 | 0.00 | 0.00 | 54 | 1010.8 |
| 20260507081306 | 18 | 199 | 14.5 | 20.9 | 0.00 | 0.00 | 0.00 | 55 | 1010.7 |
| 20260507080806 | 18 | 205 | 12.9 | 19.3 | 0.00 | 0.00 | 0.00 | 54 | 1010.7 |
| 20260507080306 | 18 | 203 | 11.3 | 20.9 | 0.00 | 0.00 | 0.00 | 54 | 1010.8 |
| 20260507075806 | 18 | 196 | 1.6 | 14.5 | 0.00 | 0.00 | 0.00 | 56 | 1010.8 |
| 20260507075307 | 18 | 233 | 3.2 | 16.1 | 0.00 | 0.00 | 0.00 | 56 | 1010.8 |
| 20260507074805 | 18 | 260 | 6.4 | 14.5 | 0.00 | 0.00 | 0.00 | 56 | 1010.8 |
| 20260507074305 | 18 | 234 | 6.4 | 14.5 | 0.00 | 0.00 | 0.00 | 57 | 1010.8 |
| 20260507073804 | 18 | 199 | 4.8 | 14.5 | 0.00 | 0.00 | 0.00 | 56 | 1010.7 |
| 20260507073304 | 17 | 209 | 9.7 | 16.1 | 0.00 | 0.00 | 0.00 | 57 | 1010.7 |
| 20260507072804 | 17 | 213 | 4.8 | 22.5 | 0.00 | 0.00 | 0.00 | 56 | 1010.6 |
| 20260507072306 | 17 | 164 | 4.8 | 16.1 | 0.00 | 0.00 | 0.00 | 57 | 1010.6 |
| 20260507071803 | 17 | 209 | 1.6 | 20.9 | 0.00 | 0.00 | 0.00 | 58 | 1010.6 |
| 20260507071303 | 17 | 171 | 3.2 | 17.7 | 0.00 | 0.00 | 0.00 | 57 | 1010.6 |
| 20260507070803 | 17 | 241 | 8.0 | 19.3 | 0.00 | 0.00 | 0.00 | 57 | 1010.6 |
| 20260507070302 | 17 | 230 | 14.5 | 17.7 | 0.00 | 0.00 | 0.00 | 57 | 1010.6 |
| 20260507065802 | 17 | 210 | 8.0 | 17.7 | 0.00 | 0.00 | 0.00 | 57 | 1010.5 |
| 20260507065305 | 17 | 178 | 0.0 | 6.4 | 0.00 | 0.00 | 0.00 | 58 | 1010.3 |
| 20260507064802 | 17 | 217 | 3.2 | 11.3 | 0.00 | 0.00 | 0.00 | 58 | 1010.3 |
| 20260507064301 | 17 | 172 | 4.8 | 12.9 | 0.00 | 0.00 | 0.00 | 58 | 1010.3 |
| 20260507063801 | 17 | 147 | 6.4 | 12.9 | 0.00 | 0.00 | 0.00 | 58 | 1010.3 |
| 20260507063301 | 17 | 233 | 4.8 | 9.7 | 0.00 | 0.00 | 0.00 | 59 | 1010.3 |
| 20260507062800 | 17 | 243 | 6.4 | 11.3 | 0.00 | 0.00 | 0.00 | 59 | 1010.3 |
| 20260507062300 | 17 | 160 | 4.8 | 17.7 | 0.00 | 0.00 | 0.00 | 59 | 1010.1 |
| 20260507061800 | 17 | 196 | 3.2 | 12.9 | 0.00 | 0.00 | 0.00 | 60 | 1010.1 |
| 20260507061300 | 17 | 243 | 1.6 | 9.7 | 0.00 | 0.00 | 0.00 | 60 | 1010.2 |
| 20260507060759 | 17 | 182 | 3.2 | 9.7 | 0.00 | 0.00 | 0.00 | 60 | 1010.2 |
| 20260507060259 | 17 | 223 | 3.2 | 12.9 | 0.00 | 0.00 | 0.00 | 61 | 1010.2 |
| 20260507055759 | 17 | 240 | 6.4 | 12.9 | 0.00 | 0.00 | 0.00 | 60 | 1010.1 |
| 20260507055258 | 16 | 182 | 4.8 | 14.5 | 0.00 | 0.00 | 0.00 | 61 | 1010.1 |
| 20260507054758 | 16 | 230 | 11.3 | 14.5 | 0.00 | 0.00 | 0.00 | 59 | 1010.1 |
| 20260507054258 | 16 | 104 | 3.2 | 9.7 | 0.00 | 0.00 | 0.00 | 61 | 1010.0 |
| 20260507053758 | 16 | 205 | 3.2 | 14.5 | 0.00 | 0.00 | 0.00 | 60 | 1010.0 |
| 20260507053257 | 16 | 222 | 1.6 | 11.3 | 0.00 | 0.00 | 0.00 | 61 | 1010.1 |
| 20260507052757 | 16 | 232 | 6.4 | 12.9 | 0.00 | 0.00 | 0.00 | 60 | 1010.1 |
| 20260507052257 | 16 | 188 | 3.2 | 17.7 | 0.00 | 0.00 | 0.00 | 61 | 1010.1 |
| 20260507051756 | 16 | 213 | 3.2 | 11.3 | 0.00 | 0.00 | 0.00 | 62 | 1010.1 |
| 20260507051256 | 16 | 199 | 0.0 | 14.5 | 0.00 | 0.00 | 0.00 | 62 | 1010.1 |
| 20260507050756 | 16 | 217 | 4.8 | 12.9 | 0.00 | 0.00 | 0.00 | 62 | 1010.1 |
| 20260507050256 | 16 | 213 | 3.2 | 14.5 | 0.00 | 0.00 | 0.00 | 62 | 1010.2 |
| 20260507045755 | 16 | 239 | 3.2 | 12.9 | 0.00 | 0.00 | 0.00 | 62 | 1010.2 |
| 20260507045255 | 16 | 253 | 4.8 | 16.1 | 0.00 | 0.00 | 0.00 | 61 | 1010.1 |
| 20260507044755 | 16 | 164 | 3.2 | 14.5 | 0.00 | 0.00 | 0.00 | 61 | 1010.1 |
| 20260507044254 | 16 | 229 | 11.3 | 12.9 | 0.00 | 0.00 | 0.00 | 60 | 1010.1 |
| 20260507043754 | 16 | 192 | 8.0 | 16.1 | 0.00 | 0.00 | 0.00 | 60 | 1010.0 |
| 20260507043254 | 16 | 248 | 1.6 | 14.5 | 0.00 | 0.00 | 0.00 | 60 | 1010.0 |
| 20260507042754 | 16 | 209 | 4.8 | 14.5 | 0.00 | 0.00 | 0.00 | 60 | 1010.0 |
| 20260507042253 | 16 | 208 | 3.2 | 12.9 | 0.00 | 0.00 | 0.00 | 60 | 1009.9 |
| 20260507041753 | 16 | 188 | 4.8 | 8.0 | 0.00 | 0.00 | 0.00 | 60 | 1009.8 |
| 20260507041253 | 16 | 209 | 3.2 | 9.7 | 0.00 | 0.00 | 0.00 | 61 | 1009.7 |
| 20260507040753 | 16 | 225 | 8.0 | 9.7 | 0.00 | 0.00 | 0.00 | 61 | 1009.6 |
| 20260507040252 | 16 | 244 | 3.2 | 8.0 | 0.00 | 0.00 | 0.00 | 60 | 1009.6 |
| 20260507035752 | 16 | 199 | 4.8 | 14.5 | 0.00 | 0.00 | 0.00 | 60 | 1009.6 |
| 20260507035252 | 16 | 142 | 3.2 | 14.5 | 0.00 | 0.00 | 0.00 | 59 | 1009.5 |
| 20260507034751 | 16 | 153 | 1.6 | 12.9 | 0.00 | 0.00 | 0.00 | 59 | 1009.5 |
| 20260507034251 | 17 | 237 | 3.2 | 16.1 | 0.00 | 0.00 | 0.00 | 57 | 1009.4 |
| 20260507033751 | 17 | 233 | 1.6 | 9.7 | 0.00 | 0.00 | 0.00 | 56 | 1009.4 |
| 20260507033250 | 17 | 195 | 0.0 | 6.4 | 0.00 | 0.00 | 0.00 | 56 | 1009.2 |
| 20260507032750 | 16 | 150 | 0.0 | 3.2 | 0.00 | 0.00 | 0.00 | 55 | 1009.2 |
| 20260507032250 | 17 | 143 | 0.0 | 9.7 | 0.00 | 0.00 | 0.00 | 55 | 1009.2 |
| 20260507031750 | 16 | 143 | 0.0 | 8.0 | 0.00 | 0.00 | 0.00 | 55 | 1009.1 |
| 20260507031249 | 16 | 230 | 3.2 | 8.0 | 0.00 | 0.00 | 0.00 | 55 | 1009.0 |
| 20260507030749 | 16 | 174 | 6.4 | 8.0 | 0.00 | 0.00 | 0.00 | 55 | 1009.0 |
| 20260507030249 | 17 | 202 | 0.0 | 8.0 | 0.00 | 0.00 | 0.00 | 55 | 1009.0 |
| 20260507025749 | 17 | 126 | 0.0 | 9.7 | 0.00 | 0.00 | 0.00 | 54 | 1008.9 |
| 20260507025248 | 17 | 146 | 1.6 | 16.1 | 0.00 | 0.00 | 0.00 | 54 | 1008.9 |
| 20260507024748 | 17 | 177 | 6.4 | 14.5 | 0.00 | 0.00 | 0.00 | 54 | 1008.8 |
| 20260507024248 | 17 | 240 | 0.0 | 11.3 | 0.00 | 0.00 | 0.00 | 54 | 1008.8 |
| 20260507023747 | 17 | 236 | 1.6 | 11.3 | 0.00 | 0.00 | 0.00 | 54 | 1008.8 |
| 20260507023247 | 17 | 170 | 6.4 | 11.3 | 0.00 | 0.00 | 0.00 | 54 | 1008.8 |
| 20260507022747 | 17 | 182 | 3.2 | 8.0 | 0.00 | 0.00 | 0.00 | 54 | 1008.8 |
| 20260507022247 | 17 | 201 | 4.8 | 8.0 | 0.00 | 0.00 | 0.00 | 53 | 1008.8 |
| 20260507021746 | 17 | 178 | 4.8 | 6.4 | 0.00 | 0.00 | 0.00 | 53 | 1008.7 |
| 20260507021246 | 17 | 187 | 0.0 | 4.8 | 0.00 | 0.00 | 0.00 | 53 | 1008.8 |
| 20260507020746 | 17 | 126 | 0.0 | 8.0 | 0.00 | 0.00 | 0.00 | 54 | 1008.8 |
| 20260507020245 | 16 | 158 | 0.0 | 4.8 | 0.00 | 0.00 | 0.00 | 54 | 1008.8 |
| 20260507015745 | 16 | 161 | 0.0 | 0.0 | 0.00 | 0.00 | 0.00 | 54 | 1008.8 |
| 20260507015245 | 16 | 161 | 0.0 | 3.2 | 0.00 | 0.00 | 0.00 | 54 | 1008.8 |
| 20260507014745 | 16 | 232 | 0.0 | 8.0 | 0.00 | 0.00 | 0.00 | 54 | 1008.9 |
| 20260507014244 | 16 | 201 | 0.0 | 1.6 | 0.00 | 0.00 | 0.00 | 54 | 1008.8 |
| 20260507013744 | 16 | 174 | 0.0 | 0.0 | 0.00 | 0.00 | 0.00 | 54 | 1008.9 |
| 20260507013244 | 16 | 174 | 0.0 | 1.6 | 0.00 | 0.00 | 0.00 | 54 | 1008.8 |
| 20260507012743 | 16 | 217 | 0.0 | 4.8 | 0.00 | 0.00 | 0.00 | 54 | 1008.8 |
| 20260507012243 | 17 | 229 | 0.0 | 9.7 | 0.00 | 0.00 | 0.00 | 54 | 1008.8 |
| 20260507011743 | 17 | 205 | 8.0 | 8.0 | 0.00 | 0.00 | 0.00 | 54 | 1008.7 |
| 20260507011243 | 16 | 217 | 3.2 | 14.5 | 0.00 | 0.00 | 0.00 | 53 | 1008.6 |
| 20260507010742 | 16 | 208 | 0.0 | 9.7 | 0.00 | 0.00 | 0.00 | 54 | 1008.6 |
| 20260507010242 | 16 | 177 | 1.6 | 11.3 | 0.00 | 0.00 | 0.00 | 54 | 1008.7 |
| 20260507005742 | 16 | 203 | 1.6 | 12.9 | 0.00 | 0.00 | 0.00 | 54 | 1008.6 |
| 20260507005241 | 16 | 213 | 8.0 | 11.3 | 0.00 | 0.00 | 0.00 | 55 | 1008.6 |
| 20260507004741 | 16 | 195 | 8.0 | 8.0 | 0.00 | 0.00 | 0.00 | 56 | 1008.6 |
| 20260507004241 | 16 | 196 | 3.2 | 4.8 | 0.00 | 0.00 | 0.00 | 56 | 1008.6 |
| 20260507003741 | 16 | 194 | 0.0 | 6.4 | 0.00 | 0.00 | 0.00 | 57 | 1008.7 |
| 20260507003240 | 15 | 167 | 0.0 | 4.8 | 0.00 | 0.00 | 0.00 | 58 | 1008.6 |
| 20260507002740 | 15 | 185 | 0.0 | 6.4 | 0.00 | 0.00 | 0.00 | 60 | 1008.6 |
| 20260507002240 | 14 | 171 | 0.0 | 6.4 | 0.00 | 0.00 | 0.00 | 63 | 1008.6 |
| 20260507001739 | 13 | 153 | 0.0 | 6.4 | 0.00 | 0.00 | 0.00 | 65 | 1008.5 |
| 20260507001239 | 13 | 187 | 0.0 | 0.0 | 0.00 | 0.00 | 0.00 | 65 | 1008.5 |
| 20260507000739 | 13 | 187 | 0.0 | 0.0 | 0.00 | 0.00 | 0.00 | 64 | 1008.5 |
| 20260507000239 | 13 | 187 | 0.0 | 0.0 | 0.00 | 0.00 | 0.00 | 63 | 1008.5 |
| 20260506235738 | 14 | 187 | 0.0 | 0.0 | 0.00 | 0.00 | 0.00 | 62 | 1008.4 |
| 20260506235238 | 14 | 187 | 0.0 | 0.0 | 0.00 | 0.00 | 0.00 | 61 | 1008.5 |
| 20260506234738 | 15 | 187 | 0.0 | 0.0 | 0.00 | 0.00 | 0.00 | 59 | 1008.4 |
| 20260506234238 | 15 | 187 | 0.0 | 0.0 | 0.00 | 0.00 | 0.00 | 57 | 1008.5 |
| 20260506233737 | 15 | 187 | 0.0 | 0.0 | 0.00 | 0.00 | 0.00 | 56 | 1008.5 |
| 20260506233237 | 16 | 187 | 0.0 | 0.0 | 0.00 | 0.00 | 0.00 | 55 | 1008.5 |
| 20260506232737 | 16 | 187 | 0.0 | 0.0 | 0.00 | 0.00 | 0.00 | 54 | 1008.6 |
| 20260506232236 | 16 | 187 | 0.0 | 0.0 | 0.00 | 0.00 | 0.00 | 54 | 1008.5 |
| 20260506231736 | 16 | 187 | 0.0 | 0.0 | 0.00 | 0.00 | 0.00 | 54 | 1008.5 |
| 20260506231236 | 16 | 187 | 0.0 | 1.6 | 0.00 | 0.00 | 0.00 | 53 | 1008.5 |
| 20260506230736 | 16 | 206 | 0.0 | 3.2 | 0.00 | 0.00 | 0.00 | 53 | 1008.5 |
| 20260506230235 | 16 | 203 | 0.0 | 1.6 | 0.00 | 0.00 | 0.00 | 53 | 1008.6 |
| 20260506225735 | 16 | 165 | 0.0 | 3.2 | 0.00 | 0.00 | 0.00 | 53 | 1008.5 |
| 20260506225235 | 16 | 196 | 0.0 | 1.6 | 0.00 | 0.00 | 0.00 | 53 | 1008.5 |
| 20260506224734 | 16 | 192 | 0.0 | 1.6 | 0.00 | 0.00 | 0.00 | 53 | 1008.5 |
| 20260506224234 | 16 | 220 | 0.0 | 3.2 | 0.00 | 0.00 | 0.00 | 52 | 1008.5 |
| 20260506223734 | 16 | 217 | 0.0 | 1.6 | 0.00 | 0.00 | 0.00 | 52 | 1008.5 |
| 20260506223234 | 16 | 140 | 0.0 | 4.8 | 0.00 | 0.00 | 0.00 | 52 | 1008.5 |
| 20260506222733 | 16 | 246 | 1.6 | 8.0 | 0.00 | 0.00 | 0.00 | 52 | 1008.5 |
| 20260506222233 | 16 | 196 | 0.0 | 3.2 | 0.00 | 0.00 | 0.00 | 52 | 1008.4 |
| 20260506221733 | 16 | 201 | 0.0 | 6.4 | 0.00 | 0.00 | 0.00 | 53 | 1008.3 |
| 20260506221232 | 16 | 174 | 0.0 | 8.0 | 0.00 | 0.00 | 0.00 | 54 | 1008.4 |
| 20260506220732 | 16 | 240 | 1.6 | 4.8 | 0.00 | 0.00 | 0.00 | 55 | 1008.4 |
| 20260506220232 | 16 | 201 | 1.6 | 11.3 | 0.00 | 0.00 | 0.00 | 55 | 1008.4 |
| 20260506215732 | 16 | 216 | 6.4 | 6.4 | 0.00 | 0.00 | 0.00 | 56 | 1008.4 |
| 20260506215231 | 16 | 170 | 0.0 | 1.6 | 0.00 | 0.00 | 0.00 | 55 | 1008.4 |
| 20260506214731 | 16 | 156 | 0.0 | 3.2 | 0.00 | 0.00 | 0.00 | 54 | 1008.4 |
| 20260506214231 | 16 | 119 | 0.0 | 0.0 | 0.00 | 0.00 | 0.00 | 54 | 1008.4 |
| 20260506213730 | 16 | 119 | 0.0 | 0.0 | 0.00 | 0.00 | 0.00 | 55 | 1008.3 |
| 20260506213230 | 16 | 119 | 0.0 | 0.0 | 0.00 | 0.00 | 0.00 | 55 | 1008.3 |
| 20260506212730 | 16 | 119 | 0.0 | 0.0 | 0.00 | 0.00 | 0.00 | 55 | 1008.3 |
| 20260506212230 | 16 | 119 | 0.0 | 1.6 | 0.00 | 0.00 | 0.00 | 54 | 1008.3 |
| 20260506211729 | 16 | 92 | 0.0 | 0.0 | 0.00 | 0.00 | 0.00 | 53 | 1008.3 |
| 20260506211229 | 16 | 92 | 0.0 | 1.6 | 0.00 | 0.00 | 0.00 | 52 | 1008.3 |
| 20260506210729 | 16 | 120 | 0.0 | 1.6 | 0.00 | 0.00 | 0.00 | 52 | 1008.2 |
| 20260506210228 | 16 | 170 | 1.6 | 4.8 | 0.00 | 0.00 | 0.00 | 51 | 1008.2 |
| 20260506205728 | 16 | 112 | 0.0 | 3.2 | 0.00 | 0.00 | 0.00 | 51 | 1008.2 |
| 20260506205228 | 17 | 109 | 0.0 | 1.6 | 0.00 | 0.00 | 0.00 | 50 | 1008.2 |
| 20260506204728 | 17 | 215 | 0.0 | 0.0 | 0.00 | 0.00 | 0.00 | 50 | 1008.1 |
| 20260506204227 | 17 | 215 | 0.0 | 3.2 | 0.00 | 0.00 | 0.00 | 49 | 1008.1 |
| 20260506203727 | 17 | 226 | 0.0 | 1.6 | 0.00 | 0.00 | 0.00 | 49 | 1008.1 |
| 20260506203227 | 17 | 111 | 0.0 | 4.8 | 0.00 | 0.00 | 0.00 | 49 | 1008.0 |
| 20260506202726 | 17 | 195 | 0.0 | 3.2 | 0.00 | 0.00 | 0.00 | 49 | 1008.0 |
| 20260506202226 | 17 | 212 | 0.0 | 3.2 | 0.00 | 0.00 | 0.00 | 48 | 1008.0 |
| 20260506201726 | 17 | 172 | 0.0 | 1.6 | 0.00 | 0.00 | 0.00 | 48 | 1008.0 |
| 20260506201226 | 17 | 187 | 0.0 | 1.6 | 0.00 | 0.00 | 0.00 | 47 | 1007.9 |
| 20260506200725 | 17 | 139 | 0.0 | 1.6 | 0.00 | 0.00 | 0.00 | 47 | 1007.9 |
| 20260506200225 | 17 | 150 | 0.0 | 4.8 | 0.00 | 0.00 | 0.00 | 47 | 1007.9 |
| 20260506195725 | 18 | 127 | 0.0 | 0.0 | 0.00 | 0.00 | 0.00 | 46 | 1007.9 |
| 20260506195225 | 18 | 127 | 0.0 | 1.6 | 0.00 | 0.00 | 0.00 | 46 | 1007.9 |
| 20260506194724 | 18 | 170 | 0.0 | 8.0 | 0.00 | 0.00 | 0.00 | 46 | 1007.9 |
| 20260506194224 | 18 | 205 | 0.0 | 8.0 | 0.00 | 0.00 | 0.00 | 47 | 1007.9 |
| 20260506193724 | 18 | 137 | 0.0 | 4.8 | 0.00 | 0.00 | 0.00 | 46 | 1007.8 |
| 20260506193223 | 18 | 210 | 0.0 | 6.4 | 0.00 | 0.00 | 0.00 | 46 | 1007.9 |
| 20260506192723 | 18 | 172 | 1.6 | 4.8 | 0.00 | 0.00 | 0.00 | 46 | 1007.9 |
| 20260506192223 | 18 | 163 | 0.0 | 4.8 | 0.00 | 0.00 | 0.00 | 45 | 1007.8 |
| 20260506191723 | 18 | 147 | 1.6 | 9.7 | 0.00 | 0.00 | 0.00 | 45 | 1007.9 |
| 20260506191222 | 18 | 220 | 0.0 | 8.0 | 0.00 | 0.00 | 0.00 | 45 | 1007.8 |
| 20260506190722 | 18 | 154 | 1.6 | 9.7 | 0.00 | 0.00 | 0.00 | 45 | 1007.8 |
| 20260506190222 | 18 | 196 | 1.6 | 6.4 | 0.00 | 0.00 | 0.00 | 44 | 1007.8 |
| 20260506185721 | 18 | 205 | 0.0 | 11.3 | 0.00 | 0.00 | 0.00 | 44 | 1007.8 |
| 20260506185221 | 18 | 216 | 1.6 | 4.8 | 0.00 | 0.00 | 0.00 | 44 | 1007.8 |
| 20260506184721 | 19 | 123 | 0.0 | 9.7 | 0.00 | 0.00 | 0.00 | 43 | 1007.7 |
| 20260506184221 | 19 | 189 | 0.0 | 8.0 | 0.00 | 0.00 | 0.00 | 43 | 1007.6 |
| 20260506183720 | 19 | 216 | 6.4 | 9.7 | 0.00 | 0.00 | 0.00 | 43 | 1007.6 |
| 20260506183220 | 19 | 188 | 3.2 | 14.5 | 0.00 | 0.00 | 0.00 | 43 | 1007.4 |
| 20260506182720 | 19 | 210 | 1.6 | 11.3 | 0.00 | 0.00 | 0.00 | 42 | 1007.4 |
| 20260506182219 | 20 | 130 | 0.0 | 8.0 | 0.00 | 0.00 | 0.00 | 42 | 1007.4 |
| 20260506181719 | 20 | 201 | 6.4 | 11.3 | 0.00 | 0.00 | 0.00 | 41 | 1007.3 |
| 20260506181219 | 20 | 199 | 3.2 | 12.9 | 0.00 | 0.00 | 0.00 | 41 | 1007.3 |
| 20260506180719 | 20 | 171 | 0.0 | 9.7 | 0.00 | 0.00 | 0.00 | 41 | 1007.3 |
| 20260506180218 | 20 | 292 | 1.6 | 12.9 | 0.00 | 0.00 | 0.00 | 40 | 1007.2 |
| 20260506175718 | 20 | 194 | 1.6 | 6.4 | 0.00 | 0.00 | 0.00 | 40 | 1007.1 |
| 20260506175218 | 20 | 184 | 1.6 | 12.9 | 0.00 | 0.00 | 0.00 | 39 | 1007.1 |
| 20260506174717 | 20 | 149 | 0.0 | 9.7 | 0.00 | 0.00 | 0.00 | 39 | 1007.1 |
| 20260506174217 | 20 | 188 | 8.0 | 11.3 | 0.00 | 0.00 | 0.00 | 39 | 1007.0 |
| 20260506173717 | 21 | 222 | 4.8 | 11.3 | 0.00 | 0.00 | 0.00 | 38 | 1007.0 |
| 20260506173217 | 21 | 165 | 0.0 | 6.4 | 0.00 | 0.00 | 0.00 | 38 | 1007.0 |
| 20260506172716 | 21 | 227 | 3.2 | 9.7 | 0.00 | 0.00 | 0.00 | 37 | 1007.0 |
| 20260506172216 | 21 | 187 | 0.0 | 11.3 | 0.00 | 0.00 | 0.00 | 36 | 1006.9 |
| 20260506171716 | 21 | 247 | 3.2 | 11.3 | 0.00 | 0.00 | 0.00 | 36 | 1006.9 |
| 20260506171215 | 21 | 188 | 0.0 | 12.9 | 0.00 | 0.00 | 0.00 | 36 | 1006.9 |
| 20260506170715 | 21 | 220 | 1.6 | 14.5 | 0.00 | 0.00 | 0.00 | 35 | 1006.9 |
| 20260506170215 | 21 | 226 | 3.2 | 17.7 | 0.00 | 0.00 | 0.00 | 34 | 1006.9 |
| 20260506165715 | 21 | 198 | 6.4 | 14.5 | 0.00 | 0.00 | 0.00 | 35 | 1007.0 |
| 20260506165214 | 21 | 232 | 8.0 | 19.3 | 0.00 | 0.00 | 0.00 | 35 | 1007.0 |
| 20260506164714 | 21 | 178 | 4.8 | 17.7 | 0.00 | 0.00 | 0.00 | 35 | 1007.0 |
| 20260506164214 | 21 | 225 | 8.0 | 16.1 | 0.00 | 0.00 | 0.00 | 35 | 1006.9 |
| 20260506163713 | 21 | 189 | 4.8 | 20.9 | 0.00 | 0.00 | 0.00 | 34 | 1006.9 |
| 20260506163213 | 22 | 212 | 6.4 | 17.7 | 0.00 | 0.00 | 0.00 | 34 | 1006.8 |
| 20260506162713 | 22 | 243 | 8.0 | 24.1 | 0.00 | 0.00 | 0.00 | 33 | 1006.8 |
| 20260506162213 | 22 | 223 | 3.2 | 24.1 | 0.00 | 0.00 | 0.00 | 33 | 1006.8 |
| 20260506161712 | 22 | 232 | 20.9 | 20.9 | 0.00 | 0.00 | 0.00 | 32 | 1006.8 |
| 20260506161212 | 22 | 208 | 19.3 | 19.3 | 0.00 | 0.00 | 0.00 | 32 | 1006.8 |
| 20260506160712 | 22 | 216 | 12.9 | 22.5 | 0.00 | 0.00 | 0.00 | 31 | 1006.8 |
| 20260506160211 | 22 | 232 | 4.8 | 24.1 | 0.00 | 0.00 | 0.00 | 31 | 1006.9 |
| 20260506155711 | 22 | 230 | 12.9 | 19.3 | 0.00 | 0.00 | 0.00 | 31 | 1007.0 |
| 20260506155211 | 22 | 161 | 3.2 | 20.9 | 0.00 | 0.00 | 0.00 | 32 | 1007.0 |
| 20260506154711 | 22 | 203 | 6.4 | 19.3 | 0.00 | 0.00 | 0.00 | 31 | 1007.0 |
| 20260506154210 | 22 | 219 | 3.2 | 24.1 | 0.00 | 0.00 | 0.00 | 29 | 1007.1 |
| 20260506153710 | 23 | 229 | 4.8 | 20.9 | 0.00 | 0.00 | 0.00 | 29 | 1007.0 |
| 20260506153210 | 23 | 264 | 8.0 | 30.6 | 0.00 | 0.00 | 0.00 | 29 | 1007.1 |
| 20260506152710 | 23 | 208 | 3.2 | 22.5 | 0.00 | 0.00 | 0.00 | 28 | 1007.1 |
| 20260506152209 | 23 | 208 | 9.7 | 30.6 | 0.00 | 0.00 | 0.00 | 27 | 1007.0 |
| 20260506151709 | 23 | 223 | 8.0 | 20.9 | 0.00 | 0.00 | 0.00 | 27 | 1007.0 |
| 20260506151209 | 23 | 216 | 3.2 | 22.5 | 0.00 | 0.00 | 0.00 | 27 | 1007.0 |
| 20260506150708 | 23 | 174 | 6.4 | 29.0 | 0.00 | 0.00 | 0.00 | 27 | 1007.1 |
| 20260506150208 | 23 | 220 | 8.0 | 24.1 | 0.00 | 0.00 | 0.00 | 27 | 1007.1 |
| 20260506145708 | 23 | 188 | 14.5 | 27.4 | 0.00 | 0.00 | 0.00 | 26 | 1007.1 |
| 20260506145208 | 23 | 244 | 14.5 | 19.3 | 0.00 | 0.00 | 0.00 | 28 | 1007.1 |
| 20260506144707 | 23 | 358 | 4.8 | 27.4 | 0.00 | 0.00 | 0.00 | 29 | 1007.1 |
| 20260506144207 | 23 | 216 | 14.5 | 29.0 | 0.00 | 0.00 | 0.00 | 29 | 1007.1 |
| 20260506143707 | 23 | 227 | 16.1 | 33.8 | 0.00 | 0.00 | 0.00 | 28 | 1007.2 |
| 20260506143206 | 23 | 232 | 6.4 | 25.7 | 0.00 | 0.00 | 0.00 | 29 | 1007.1 |
| 20260506142706 | 23 | 216 | 6.4 | 27.4 | 0.00 | 0.00 | 0.00 | 29 | 1007.1 |
| 20260506142206 | 23 | 167 | 12.9 | 22.5 | 0.00 | 0.00 | 0.00 | 29 | 1007.1 |
| 20260506141706 | 23 | 232 | 1.6 | 27.4 | 0.00 | 0.00 | 0.00 | 30 | 1007.1 |
| 20260506141205 | 23 | 213 | 6.4 | 19.3 | 0.00 | 0.00 | 0.00 | 29 | 1007.2 |
| 20260506140705 | 23 | 188 | 14.5 | 30.6 | 0.00 | 0.00 | 0.00 | 29 | 1007.3 |
| 20260506140205 | 23 | 219 | 11.3 | 19.3 | 0.00 | 0.00 | 0.00 | 31 | 1007.3 |
| 20260506135704 | 23 | 108 | 9.7 | 24.1 | 0.00 | 0.00 | 0.00 | 29 | 1007.2 |
| 20260506135204 | 23 | 222 | 9.7 | 25.7 | 0.00 | 0.00 | 0.00 | 29 | 1007.3 |
| 20260506134704 | 23 | 232 | 8.0 | 20.9 | 0.00 | 0.00 | 0.00 | 29 | 1007.3 |
| 20260506134204 | 23 | 157 | 14.5 | 25.7 | 0.00 | 0.00 | 0.00 | 28 | 1007.4 |
| 20260506133703 | 23 | 213 | 16.1 | 22.5 | 0.00 | 0.00 | 0.00 | 27 | 1007.4 |
| 20260506133203 | 23 | 237 | 11.3 | 24.1 | 0.00 | 0.00 | 0.00 | 29 | 1007.4 |
| 20260506132703 | 23 | 202 | 12.9 | 35.4 | 0.00 | 0.00 | 0.00 | 29 | 1007.4 |
| 20260506132202 | 23 | 220 | 16.1 | 20.9 | 0.00 | 0.00 | 0.00 | 29 | 1007.4 |
| 20260506131703 | 23 | 253 | 8.0 | 20.9 | 0.00 | 0.00 | 0.00 | 28 | 1007.4 |
| 20260506131202 | 23 | 187 | 12.9 | 29.0 | 0.00 | 0.00 | 0.00 | 29 | 1007.6 |
| 20260506130702 | 23 | 194 | 8.0 | 27.4 | 0.00 | 0.00 | 0.00 | 29 | 1007.6 |
| 20260506130201 | 23 | 185 | 14.5 | 25.7 | 0.00 | 0.00 | 0.00 | 29 | 1007.6 |
| 20260506125701 | 23 | 225 | 17.7 | 30.6 | 0.00 | 0.00 | 0.00 | 28 | 1007.7 |
| 20260506125201 | 23 | 185 | 9.7 | 25.7 | 0.00 | 0.00 | 0.00 | 28 | 1007.6 |
| 20260506124700 | 23 | 198 | 6.4 | 29.0 | 0.00 | 0.00 | 0.00 | 28 | 1007.7 |
| 20260506124200 | 23 | 196 | 24.1 | 25.7 | 0.00 | 0.00 | 0.00 | 29 | 1007.8 |